This demonstration page uses our WeatherBlox Daily Observations layout. Learn more.

Left ArrowRight Arrow

38.20091, -84.87328

Hourly Observations for November 15, 2016

Temp ( °F °C ) Dew Point ( °F °C ) Humidity (%) Winds ( mph kmh ) Pressure ( in mb ) Visibility ( mi km ) Precip ( " mm )
12:53 am 00:53 Clear 33 0.6 28 -2.2 82 82 Calm 29.98 1015 9 14 0.00 0.00
1:53 am 01:53 Mostly Clear 33 0.6 29 -1.7 85 85 Calm 29.97 1015 10 16 0.00 0.00
2:53 am 02:53 Clear 32 0 27 -2.8 82 82 Calm 29.97 1015 9 14 0.00 0.00
3:53 am 03:53 Clear 31 -0.6 26 -3.3 82 82 Calm 29.96 1015 10 16 0.00 0.00
4:53 am 04:53 Mostly Clear 31 -0.6 27 -2.8 85 85 Calm 29.97 1015 9 14 0.00 0.00
5:53 am 05:53 Mostly Cloudy 34 1.1 29 -1.7 82 82 ESE 3 6 29.96 1015 9 14 0.00 0.00
6:53 am 06:53 Cloudy 36 2.2 31 -0.6 82 82 Calm 29.97 1015 9 14 0.00 0.00
7:53 am 07:53 Cloudy with Haze 40 4.4 34 1.1 79 79 Calm 29.98 1015 6 10 0.00 0.00
8:53 am 08:53 Cloudy 43 6.1 36 2.2 76 76 SE 3 6 29.98 1015 7 11 0.00 0.00
9:53 am 09:53 Cloudy 50 10 35 1.7 57 57 S 5 7 29.97 1015 10 16 0.00 0.00
10:53 am 10:53 Cloudy 55 12.8 36 2.2 49 49 S 7 11 29.96 1014 10 16 0.00 0.00
11:53 am 11:53 Cloudy 60 15.6 39 3.9 46 46 WSW 7 11 29.94 1014 10 16 0.00 0.00
12:53 pm 12:53 Mostly Cloudy 59 15 40 4.4 49 49 SSW 7 11 29.92 1013 10 16 0.00 0.00
1:53 pm 13:53 Cloudy 62 16.7 42 5.6 48 48 SSW 8 13 29.90 1013 10 16 0.00 0.00
2:53 pm 14:53 Partly Cloudy 63 17.2 42 5.6 47 47 SW 12 19 29.89 1012 10 16 0.00 0.00
3:53 pm 15:53 Partly Cloudy 62 16.7 43 6.1 50 50 SW 9 15 29.89 1012 10 16 0.00 0.00
4:53 pm 16:53 Sunny 59 15 43 6.1 56 56 SW 6 9 29.89 1012 10 16 0.00 0.00
5:53 pm 17:53 Clear 54 12.2 42 5.6 64 64 SSW 5 7 29.90 1012 10 16 0.00 0.00
6:53 pm 18:53 Clear 50 10 41 5 71 71 SSW 5 7 29.91 1013 10 16 0.00 0.00
7:53 pm 19:53 Mostly Clear 48 8.9 41 5 77 77 SSW 3 6 29.91 1013 10 16 0.00 0.00
8:53 pm 20:53 Partly Cloudy 49 9.4 42 5.6 77 77 SW 5 7 29.91 1013 10 16 0.00 0.00
9:53 pm 21:53 Partly Cloudy 47 8.3 40 4.4 77 77 Calm 29.92 1013 10 16 0.00 0.00
10:53 pm 22:53 Clear 46 7.8 40 4.4 79 79 SW 5 7 29.91 1013 10 16 0.00 0.00
11:53 pm 23:53 Clear 43 6.1 38 3.3 82 82 Calm 29.91 1013 9 14 0.00 0.00

Powered by AerisWeather